Year,Month,Day,Hour,Minute,Value (Times are PST for temperature in C)
2010,07,07,00,00,15.50
2010,07,07,00,01,15.40
2010,07,07,00,02,15.40
2010,07,07,00,03,15.40
2010,07,07,00,04,15.40
2010,07,07,00,05,15.40
2010,07,07,00,06,15.30
2010,07,07,00,07,15.30
2010,07,07,00,08,15.30
2010,07,07,00,09,15.30
2010,07,07,00,10,15.30
2010,07,07,00,11,15.30
2010,07,07,00,12,15.20
2010,07,07,00,13,15.20
2010,07,07,00,14,15.20
2010,07,07,00,15,15.20
2010,07,07,00,16,15.20
2010,07,07,00,17,15.10
2010,07,07,00,18,15.10
2010,07,07,00,19,15.10
2010,07,07,00,20,15.00
2010,07,07,00,21,15.00
2010,07,07,00,22,15.00
2010,07,07,00,23,15.00
2010,07,07,00,24,15.00
2010,07,07,00,25,15.00
2010,07,07,00,26,15.00
2010,07,07,00,27,14.90
2010,07,07,00,28,14.90
2010,07,07,00,29,14.90
2010,07,07,00,30,14.90
2010,07,07,00,31,14.90
2010,07,07,00,32,14.80
2010,07,07,00,33,14.90
2010,07,07,00,34,14.90
2010,07,07,00,35,14.80
2010,07,07,00,36,14.80
2010,07,07,00,37,14.80
2010,07,07,00,38,14.80
2010,07,07,00,39,14.80
2010,07,07,00,40,14.80
2010,07,07,00,41,14.80
2010,07,07,00,42,14.80
2010,07,07,00,43,14.80
2010,07,07,00,44,14.80
2010,07,07,00,45,14.80
2010,07,07,00,46,14.80
2010,07,07,00,47,14.80
2010,07,07,00,48,14.80
2010,07,07,00,49,14.80
2010,07,07,00,50,14.80
2010,07,07,00,51,14.90
2010,07,07,00,52,14.90
2010,07,07,00,53,15.00
2010,07,07,00,54,15.00
2010,07,07,00,55,15.00
2010,07,07,00,56,15.00
2010,07,07,00,57,14.90
2010,07,07,00,58,14.90
2010,07,07,00,59,14.90
2010,07,07,01,00,14.80
2010,07,07,01,01,14.80
2010,07,07,01,02,14.80
2010,07,07,01,03,14.80
2010,07,07,01,04,14.80
2010,07,07,01,05,14.80
2010,07,07,01,06,14.80
2010,07,07,01,07,14.80
2010,07,07,01,08,14.80
2010,07,07,01,09,15.00
2010,07,07,01,10,15.00
2010,07,07,01,11,15.00
2010,07,07,01,12,15.00
2010,07,07,01,13,14.90
2010,07,07,01,14,14.90
2010,07,07,01,15,14.90
2010,07,07,01,16,14.90
2010,07,07,01,17,14.90
2010,07,07,01,18,14.80
2010,07,07,01,19,14.80
2010,07,07,01,20,14.80
2010,07,07,01,21,14.80
2010,07,07,01,22,14.80
2010,07,07,01,23,14.80
2010,07,07,01,24,14.80
2010,07,07,01,25,14.70
2010,07,07,01,26,14.70
2010,07,07,01,27,14.70
2010,07,07,01,28,14.70
2010,07,07,01,29,14.70
2010,07,07,01,30,14.70
2010,07,07,01,31,14.70
2010,07,07,01,32,14.70
2010,07,07,01,33,14.70
2010,07,07,01,34,14.70
2010,07,07,01,35,14.70
2010,07,07,01,36,14.60
2010,07,07,01,37,14.60
2010,07,07,01,38,14.60
2010,07,07,01,39,14.70
2010,07,07,01,40,14.70
2010,07,07,01,41,14.70
2010,07,07,01,42,14.70
2010,07,07,01,43,14.70
2010,07,07,01,44,14.70
2010,07,07,01,45,14.70
2010,07,07,01,46,14.70
2010,07,07,01,47,14.70
2010,07,07,01,48,14.70
2010,07,07,01,49,14.70
2010,07,07,01,50,14.70
2010,07,07,01,51,14.70
2010,07,07,01,52,14.60
2010,07,07,01,53,14.60
2010,07,07,01,54,14.70
2010,07,07,01,55,14.70
2010,07,07,01,56,14.80
2010,07,07,01,57,14.80
2010,07,07,01,58,14.80
2010,07,07,01,59,14.80
2010,07,07,02,00,15.00
2010,07,07,02,01,15.00
2010,07,07,02,02,15.00
2010,07,07,02,03,15.00
2010,07,07,02,04,15.00
2010,07,07,02,05,15.00
2010,07,07,02,06,15.00
2010,07,07,02,07,15.00
2010,07,07,02,08,15.10
2010,07,07,02,09,15.20
2010,07,07,02,10,15.30
2010,07,07,02,11,15.50
2010,07,07,02,12,15.60
2010,07,07,02,13,15.80
2010,07,07,02,14,15.90
2010,07,07,02,15,16.10
2010,07,07,02,16,16.20
2010,07,07,02,17,16.40
2010,07,07,02,18,16.60
2010,07,07,02,19,16.70
2010,07,07,02,20,16.90
2010,07,07,02,21,17.00
2010,07,07,02,22,17.10
2010,07,07,02,23,17.20
2010,07,07,02,24,17.30
2010,07,07,02,25,17.40
2010,07,07,02,26,17.50
2010,07,07,02,27,17.50
2010,07,07,02,28,17.60
2010,07,07,02,29,17.70
2010,07,07,02,30,17.70
2010,07,07,02,31,17.80
2010,07,07,02,32,17.90
2010,07,07,02,33,17.90
2010,07,07,02,34,18.00
2010,07,07,02,35,18.00
2010,07,07,02,36,18.10
2010,07,07,02,37,18.20
2010,07,07,02,38,18.20
2010,07,07,02,39,18.20
2010,07,07,02,40,18.20
2010,07,07,02,41,18.20
2010,07,07,02,42,18.30
2010,07,07,02,43,18.30
2010,07,07,02,44,18.30
2010,07,07,02,45,18.30
2010,07,07,02,46,18.40
2010,07,07,02,47,18.40
2010,07,07,02,48,18.50
2010,07,07,02,49,18.50
2010,07,07,02,50,18.50
2010,07,07,02,51,18.50
2010,07,07,02,52,18.50
2010,07,07,02,53,18.50
2010,07,07,02,54,18.50
2010,07,07,02,55,18.60
2010,07,07,02,56,18.60
2010,07,07,02,57,18.60
2010,07,07,02,58,18.60
2010,07,07,02,59,18.60
2010,07,07,03,00,18.60
2010,07,07,03,01,18.70
2010,07,07,03,02,18.70
2010,07,07,03,03,18.70
2010,07,07,03,04,18.70
2010,07,07,03,05,18.70
2010,07,07,03,06,18.70
2010,07,07,03,07,18.70
2010,07,07,03,08,18.70
2010,07,07,03,09,18.70
2010,07,07,03,10,18.70
2010,07,07,03,11,18.70
2010,07,07,03,12,18.70
2010,07,07,03,13,18.70
2010,07,07,03,14,18.70
2010,07,07,03,15,18.70
2010,07,07,03,16,18.70
2010,07,07,03,17,18.60
2010,07,07,03,18,18.60
2010,07,07,03,19,18.60
2010,07,07,03,20,18.60
2010,07,07,03,21,18.60
2010,07,07,03,22,18.60
2010,07,07,03,23,18.60
2010,07,07,03,24,18.60
2010,07,07,03,25,18.60
2010,07,07,03,26,18.60
2010,07,07,03,27,18.60
2010,07,07,03,28,18.60
2010,07,07,03,29,18.50
2010,07,07,03,30,18.50
2010,07,07,03,31,18.50
2010,07,07,03,32,18.50
2010,07,07,03,33,18.50
2010,07,07,03,34,18.50
2010,07,07,03,35,18.50
2010,07,07,03,36,18.50
2010,07,07,03,37,18.50
2010,07,07,03,38,18.50
2010,07,07,03,39,18.50
2010,07,07,03,40,18.50
2010,07,07,03,41,18.50
2010,07,07,03,42,18.50
2010,07,07,03,43,18.50
2010,07,07,03,44,18.50
2010,07,07,03,45,18.60
2010,07,07,03,46,18.50
2010,07,07,03,47,18.50
2010,07,07,03,48,18.50
2010,07,07,03,49,18.50
2010,07,07,03,50,18.50
2010,07,07,03,51,18.50
2010,07,07,03,52,18.50
2010,07,07,03,53,18.50
2010,07,07,03,54,18.50
2010,07,07,03,55,18.50
2010,07,07,03,56,18.50
2010,07,07,03,57,18.50
2010,07,07,03,58,18.40
2010,07,07,03,59,18.40
2010,07,07,04,00,18.40
2010,07,07,04,01,18.40
2010,07,07,04,02,18.40
2010,07,07,04,03,18.40
2010,07,07,04,04,18.40
2010,07,07,04,05,18.40
2010,07,07,04,06,18.40
2010,07,07,04,07,18.40
2010,07,07,04,08,18.40
2010,07,07,04,09,18.40
2010,07,07,04,10,18.40
2010,07,07,04,11,18.40
2010,07,07,04,12,18.40
2010,07,07,04,13,18.40
2010,07,07,04,14,18.40
2010,07,07,04,15,18.50
2010,07,07,04,16,18.50
2010,07,07,04,17,18.50
2010,07,07,04,18,18.60
2010,07,07,04,19,18.60
2010,07,07,04,20,18.60
2010,07,07,04,21,18.60
2010,07,07,04,22,18.60
2010,07,07,04,23,18.60
2010,07,07,04,24,18.60
2010,07,07,04,25,18.60
2010,07,07,04,26,18.60
2010,07,07,04,27,18.60
2010,07,07,04,28,18.60
2010,07,07,04,29,18.60
2010,07,07,04,30,18.60
2010,07,07,04,31,18.70
2010,07,07,04,32,18.70
2010,07,07,04,33,18.70
2010,07,07,04,34,18.60
2010,07,07,04,35,18.60
2010,07,07,04,36,18.60
2010,07,07,04,37,18.50
2010,07,07,04,38,18.50
2010,07,07,04,39,18.50
2010,07,07,04,40,18.40
2010,07,07,04,41,18.40
2010,07,07,04,42,18.40
2010,07,07,04,43,18.30
2010,07,07,04,44,18.30
2010,07,07,04,45,18.30
2010,07,07,04,46,18.30
2010,07,07,04,47,18.30
2010,07,07,04,48,18.30
2010,07,07,04,49,18.30
2010,07,07,04,50,18.30
2010,07,07,04,51,18.30
2010,07,07,04,52,18.30
2010,07,07,04,53,18.30
2010,07,07,04,54,18.30
2010,07,07,04,55,18.30
2010,07,07,04,56,18.30
2010,07,07,04,57,18.20
2010,07,07,04,58,18.20
2010,07,07,04,59,18.20
2010,07,07,05,00,18.20
2010,07,07,05,01,18.10
2010,07,07,05,02,18.10
2010,07,07,05,03,18.10
2010,07,07,05,04,18.10
2010,07,07,05,05,18.00
2010,07,07,05,06,18.00
2010,07,07,05,07,18.00
2010,07,07,05,08,18.00
2010,07,07,05,09,18.00
2010,07,07,05,10,17.90
2010,07,07,05,11,17.90
2010,07,07,05,12,17.80
2010,07,07,05,13,17.80
2010,07,07,05,14,17.70
2010,07,07,05,15,17.70
2010,07,07,05,16,17.60
2010,07,07,05,17,17.60
2010,07,07,05,18,17.50
2010,07,07,05,19,17.50
2010,07,07,05,20,17.40
2010,07,07,05,21,17.40
2010,07,07,05,22,17.30
2010,07,07,05,23,17.30
2010,07,07,05,24,17.20
2010,07,07,05,25,17.10
2010,07,07,05,26,17.00
2010,07,07,05,27,17.00
2010,07,07,05,28,17.00
2010,07,07,05,29,16.90
2010,07,07,05,30,16.90
2010,07,07,05,31,16.90
2010,07,07,05,32,16.90
2010,07,07,05,33,16.90
2010,07,07,05,34,16.90
2010,07,07,05,35,16.90
2010,07,07,05,36,16.90
2010,07,07,05,37,16.90
2010,07,07,05,38,16.90
2010,07,07,05,39,16.90
2010,07,07,05,40,17.00
2010,07,07,05,41,16.90
2010,07,07,05,42,16.90
2010,07,07,05,43,17.00
2010,07,07,05,44,17.00
2010,07,07,05,45,17.00
2010,07,07,05,46,17.00
2010,07,07,05,47,17.00
2010,07,07,05,48,17.00
2010,07,07,05,49,17.00
2010,07,07,05,50,17.00
2010,07,07,05,51,17.00
2010,07,07,05,52,17.10
2010,07,07,05,53,17.10
2010,07,07,05,54,17.10
2010,07,07,05,55,17.10
2010,07,07,05,56,17.10
2010,07,07,05,57,17.10
2010,07,07,05,58,17.10
2010,07,07,05,59,17.00
2010,07,07,06,00,17.00
2010,07,07,06,01,17.00
2010,07,07,06,02,16.90
2010,07,07,06,03,16.90
2010,07,07,06,04,16.80
2010,07,07,06,05,16.80
2010,07,07,06,06,16.80
2010,07,07,06,07,16.80
2010,07,07,06,08,16.80
2010,07,07,06,09,16.80
2010,07,07,06,10,16.90
2010,07,07,06,11,17.00
2010,07,07,06,12,17.00
2010,07,07,06,13,17.10
2010,07,07,06,14,17.20
2010,07,07,06,15,17.30
2010,07,07,06,16,17.40
2010,07,07,06,17,17.50
2010,07,07,06,18,17.50
2010,07,07,06,19,17.60
2010,07,07,06,20,17.70
2010,07,07,06,21,17.80
2010,07,07,06,22,17.90
2010,07,07,06,23,18.00
2010,07,07,06,24,18.00
2010,07,07,06,25,18.10
2010,07,07,06,26,18.10
2010,07,07,06,27,18.20
2010,07,07,06,28,18.20
2010,07,07,06,29,18.20
2010,07,07,06,30,18.30
2010,07,07,06,31,18.30
2010,07,07,06,32,18.40
2010,07,07,06,33,18.40
2010,07,07,06,34,18.40
2010,07,07,06,35,18.40
2010,07,07,06,36,18.40
2010,07,07,06,37,18.40
2010,07,07,06,38,18.40
2010,07,07,06,39,18.40
2010,07,07,06,40,18.40
2010,07,07,06,41,18.40
2010,07,07,06,42,18.50
2010,07,07,06,43,18.50
2010,07,07,06,44,18.60
2010,07,07,06,45,18.60
2010,07,07,06,46,18.60
2010,07,07,06,47,18.70
2010,07,07,06,48,18.70
2010,07,07,06,49,18.70
2010,07,07,06,50,18.80
2010,07,07,06,51,18.80
2010,07,07,06,52,18.80
2010,07,07,06,53,18.90
2010,07,07,06,54,18.90
2010,07,07,06,55,18.90
2010,07,07,06,56,19.00
2010,07,07,06,57,19.10
2010,07,07,06,58,19.10
2010,07,07,06,59,19.10
2010,07,07,07,00,19.20
2010,07,07,07,01,19.20
2010,07,07,07,02,19.20
2010,07,07,07,03,19.20
2010,07,07,07,04,19.20
2010,07,07,07,05,19.20
2010,07,07,07,06,19.20
2010,07,07,07,07,19.20
2010,07,07,07,08,19.20
2010,07,07,07,09,19.30
2010,07,07,07,10,19.30
2010,07,07,07,11,19.30
2010,07,07,07,12,19.30
2010,07,07,07,13,19.30
2010,07,07,07,14,19.30
2010,07,07,07,15,19.30
2010,07,07,07,16,19.30
2010,07,07,07,17,19.30
2010,07,07,07,18,19.40
2010,07,07,07,19,19.40
2010,07,07,07,20,19.40
2010,07,07,07,21,19.40
2010,07,07,07,22,19.50
2010,07,07,07,23,19.50
2010,07,07,07,24,19.50
2010,07,07,07,25,19.50
2010,07,07,07,26,19.50
2010,07,07,07,27,19.60
2010,07,07,07,28,19.60
2010,07,07,07,29,19.60
2010,07,07,07,30,19.60
2010,07,07,07,31,19.60
2010,07,07,07,32,19.60
2010,07,07,07,33,19.60
2010,07,07,07,34,19.60
2010,07,07,07,35,19.70
2010,07,07,07,36,19.70
2010,07,07,07,37,19.70
2010,07,07,07,38,19.70
2010,07,07,07,39,19.70
2010,07,07,07,40,19.80
2010,07,07,07,41,19.80
2010,07,07,07,42,19.80
2010,07,07,07,43,19.80
2010,07,07,07,44,19.80
2010,07,07,07,45,19.80
2010,07,07,07,46,19.80
2010,07,07,07,47,19.80
2010,07,07,07,48,19.80
2010,07,07,07,49,19.80
2010,07,07,07,50,19.90
2010,07,07,07,51,19.90
2010,07,07,07,52,19.90
2010,07,07,07,53,19.90
2010,07,07,07,54,20.00
2010,07,07,07,55,20.00
2010,07,07,07,56,20.10
2010,07,07,07,57,20.10
2010,07,07,07,58,20.20
2010,07,07,07,59,20.20
2010,07,07,08,00,20.30
2010,07,07,08,01,20.30
2010,07,07,08,02,20.30
2010,07,07,08,03,20.30
2010,07,07,08,04,20.30
2010,07,07,08,05,20.30
2010,07,07,08,06,20.40
2010,07,07,08,07,20.40
2010,07,07,08,08,20.40
2010,07,07,08,09,20.30
2010,07,07,08,10,20.40
2010,07,07,08,11,20.40
2010,07,07,08,12,20.40
2010,07,07,08,13,20.40
2010,07,07,08,14,20.50
2010,07,07,08,15,20.50
2010,07,07,08,16,20.50
2010,07,07,08,17,20.50
2010,07,07,08,18,20.50
2010,07,07,08,19,20.50
2010,07,07,08,20,20.60
2010,07,07,08,21,20.60
2010,07,07,08,22,20.60
2010,07,07,08,23,20.70
2010,07,07,08,24,20.70
2010,07,07,08,25,20.70
2010,07,07,08,26,20.80
2010,07,07,08,27,20.80
2010,07,07,08,28,20.80
2010,07,07,08,29,20.80
2010,07,07,08,30,20.90
2010,07,07,08,31,20.90
2010,07,07,08,32,20.90
2010,07,07,08,33,20.80
2010,07,07,08,34,20.80
2010,07,07,08,35,20.70
2010,07,07,08,36,20.60
2010,07,07,08,37,20.60
2010,07,07,08,38,20.50
2010,07,07,08,39,20.50
2010,07,07,08,40,20.40
2010,07,07,08,41,20.40
2010,07,07,08,42,20.50
2010,07,07,08,43,20.50
2010,07,07,08,44,20.50
2010,07,07,08,45,20.50
2010,07,07,08,46,20.50
2010,07,07,08,47,20.50
2010,07,07,08,48,20.50
2010,07,07,08,49,20.50
2010,07,07,08,50,20.60
2010,07,07,08,51,20.70
2010,07,07,08,52,20.70
2010,07,07,08,53,20.80
2010,07,07,08,54,20.80
2010,07,07,08,55,20.90
2010,07,07,08,56,20.90
2010,07,07,08,57,21.00
2010,07,07,08,58,21.00
2010,07,07,08,59,21.10
2010,07,07,09,00,21.20
2010,07,07,09,01,21.20
2010,07,07,09,02,21.30
2010,07,07,09,03,21.30
2010,07,07,09,04,21.50
2010,07,07,09,05,21.60
2010,07,07,09,06,21.70
2010,07,07,09,07,21.80
2010,07,07,09,08,21.80
2010,07,07,09,09,21.80
2010,07,07,09,10,21.80
2010,07,07,09,11,21.80
2010,07,07,09,12,21.80
2010,07,07,09,13,21.80
2010,07,07,09,14,21.80
2010,07,07,09,15,21.90
2010,07,07,09,16,21.90
2010,07,07,09,17,21.90
2010,07,07,09,18,22.00
2010,07,07,09,19,21.90
2010,07,07,09,20,22.00
2010,07,07,09,21,22.00
2010,07,07,09,22,22.00
2010,07,07,09,23,21.90
2010,07,07,09,24,21.90
2010,07,07,09,25,21.90
2010,07,07,09,26,21.80
2010,07,07,09,27,21.90
2010,07,07,09,28,21.90
2010,07,07,09,29,22.00
2010,07,07,09,30,22.00
2010,07,07,09,31,22.00
2010,07,07,09,32,21.90
2010,07,07,09,33,21.90
2010,07,07,09,34,21.90
2010,07,07,09,35,21.90
2010,07,07,09,36,21.90
2010,07,07,09,37,21.80
2010,07,07,09,38,21.80
2010,07,07,09,39,21.90
2010,07,07,09,40,21.90
2010,07,07,09,41,22.00
2010,07,07,09,42,22.10
2010,07,07,09,43,22.10
2010,07,07,09,44,22.10
2010,07,07,09,45,22.20
2010,07,07,09,46,22.10
2010,07,07,09,47,22.20
2010,07,07,09,48,22.20
2010,07,07,09,49,22.30
2010,07,07,09,50,22.30
2010,07,07,09,51,22.30
2010,07,07,09,52,22.20
2010,07,07,09,53,22.20
2010,07,07,09,54,22.20
2010,07,07,09,55,22.20
2010,07,07,09,56,22.10
2010,07,07,09,57,22.10
2010,07,07,09,58,22.10
2010,07,07,09,59,22.10
2010,07,07,10,00,22.10
2010,07,07,10,01,22.20
2010,07,07,10,02,22.20
2010,07,07,10,03,22.30
2010,07,07,10,04,22.30
2010,07,07,10,05,22.40
2010,07,07,10,06,22.50
2010,07,07,10,07,22.50
2010,07,07,10,08,22.40
2010,07,07,10,09,22.40
2010,07,07,10,10,22.30
2010,07,07,10,11,22.30
2010,07,07,10,12,22.30
2010,07,07,10,13,22.30
2010,07,07,10,14,22.30
2010,07,07,10,15,22.40
2010,07,07,10,16,22.40
2010,07,07,10,17,22.60
2010,07,07,10,18,22.70
2010,07,07,10,19,22.80
2010,07,07,10,20,22.80
2010,07,07,10,21,22.90
2010,07,07,10,22,22.90
2010,07,07,10,23,22.90
2010,07,07,10,24,22.90
2010,07,07,10,25,22.90
2010,07,07,10,26,22.90
2010,07,07,10,27,22.90
2010,07,07,10,28,22.90
2010,07,07,10,29,23.00
2010,07,07,10,30,23.00
2010,07,07,10,31,23.10
2010,07,07,10,32,23.10
2010,07,07,10,33,23.20
2010,07,07,10,34,23.20
2010,07,07,10,35,23.30
2010,07,07,10,36,23.30
2010,07,07,10,37,23.30
2010,07,07,10,38,23.30
2010,07,07,10,39,23.30
2010,07,07,10,40,23.30
2010,07,07,10,41,23.30
2010,07,07,10,42,23.40
2010,07,07,10,43,23.40
2010,07,07,10,44,23.50
2010,07,07,10,45,23.60
2010,07,07,10,46,23.60
2010,07,07,10,47,23.50
2010,07,07,10,48,23.50
2010,07,07,10,49,23.50
2010,07,07,10,50,23.60
2010,07,07,10,51,23.60
2010,07,07,10,52,23.60
2010,07,07,10,53,23.60
2010,07,07,10,54,23.70
2010,07,07,10,55,23.70
2010,07,07,10,56,23.80
2010,07,07,10,57,23.90
2010,07,07,10,58,23.90
2010,07,07,10,59,24.00
2010,07,07,11,00,24.10
2010,07,07,11,01,24.10
2010,07,07,11,02,24.10
2010,07,07,11,03,24.00
2010,07,07,11,04,24.00
2010,07,07,11,05,23.90
2010,07,07,11,06,23.80
2010,07,07,11,07,23.70
2010,07,07,11,08,23.60
2010,07,07,11,09,23.60
2010,07,07,11,10,23.70
2010,07,07,11,11,23.70
2010,07,07,11,12,23.80
2010,07,07,11,13,24.00
2010,07,07,11,14,24.00
2010,07,07,11,15,24.10
2010,07,07,11,16,24.10
2010,07,07,11,17,24.20
2010,07,07,11,18,24.40
2010,07,07,11,19,24.40
2010,07,07,11,20,24.40
2010,07,07,11,21,24.30
2010,07,07,11,22,24.20
2010,07,07,11,23,24.20
2010,07,07,11,24,24.20
2010,07,07,11,25,24.30
2010,07,07,11,26,24.30
2010,07,07,11,27,24.20
2010,07,07,11,28,24.20
2010,07,07,11,29,24.20
2010,07,07,11,30,24.20
2010,07,07,11,31,24.20
2010,07,07,11,32,24.30
2010,07,07,11,33,24.40
2010,07,07,11,34,24.50
2010,07,07,11,35,24.60
2010,07,07,11,36,24.70
2010,07,07,11,37,24.80
2010,07,07,11,38,24.80
2010,07,07,11,39,24.70
2010,07,07,11,40,24.60
2010,07,07,11,41,24.60
2010,07,07,11,42,24.60
2010,07,07,11,43,24.60
2010,07,07,11,44,24.50
2010,07,07,11,45,24.40
2010,07,07,11,46,24.30
2010,07,07,11,47,24.30
2010,07,07,11,48,24.20
2010,07,07,11,49,24.20
2010,07,07,11,50,24.10
2010,07,07,11,51,24.10
2010,07,07,11,52,24.20
2010,07,07,11,53,24.20
2010,07,07,11,54,24.30
2010,07,07,11,55,24.40
2010,07,07,11,56,24.50
2010,07,07,11,57,24.50
2010,07,07,11,58,24.60
2010,07,07,11,59,24.70
2010,07,07,12,00,24.80
2010,07,07,12,01,24.80
2010,07,07,12,02,24.90
2010,07,07,12,03,24.90
2010,07,07,12,04,24.90
2010,07,07,12,05,24.90
2010,07,07,12,06,24.90
2010,07,07,12,07,24.80
2010,07,07,12,08,24.80
2010,07,07,12,09,24.80
2010,07,07,12,10,24.70
2010,07,07,12,11,24.70
2010,07,07,12,12,24.70
2010,07,07,12,13,24.70
2010,07,07,12,14,24.80
2010,07,07,12,15,24.80
2010,07,07,12,16,24.80
2010,07,07,12,17,24.90
2010,07,07,12,18,24.90
2010,07,07,12,19,25.00
2010,07,07,12,20,25.10
2010,07,07,12,21,25.10
2010,07,07,12,22,25.20
2010,07,07,12,23,25.30
2010,07,07,12,24,25.40
2010,07,07,12,25,25.50
2010,07,07,12,26,25.70
2010,07,07,12,27,25.70
2010,07,07,12,28,25.80
2010,07,07,12,29,25.90
2010,07,07,12,30,25.90
2010,07,07,12,31,25.90
2010,07,07,12,32,25.90
2010,07,07,12,33,25.80
2010,07,07,12,34,25.80
2010,07,07,12,35,25.90
2010,07,07,12,36,25.90
2010,07,07,12,37,25.90
2010,07,07,12,38,25.90
2010,07,07,12,39,25.90
2010,07,07,12,40,25.90
2010,07,07,12,41,25.90
2010,07,07,12,42,25.90
2010,07,07,12,43,25.90
2010,07,07,12,44,25.90
2010,07,07,12,45,25.90
2010,07,07,12,46,25.90
2010,07,07,12,47,25.90
2010,07,07,12,48,25.90
2010,07,07,12,49,26.00
2010,07,07,12,50,26.10
2010,07,07,12,51,26.20
2010,07,07,12,52,26.20
2010,07,07,12,53,26.20
2010,07,07,12,54,26.20
2010,07,07,12,55,26.10
2010,07,07,12,56,26.10
2010,07,07,12,57,26.20
2010,07,07,12,58,26.20
2010,07,07,12,59,26.30
2010,07,07,13,00,26.40
2010,07,07,13,01,26.50
2010,07,07,13,02,26.60
2010,07,07,13,03,26.70
2010,07,07,13,04,26.70
2010,07,07,13,05,26.80
2010,07,07,13,06,26.90
2010,07,07,13,07,26.90
2010,07,07,13,08,27.00
2010,07,07,13,09,27.00
2010,07,07,13,10,27.00
2010,07,07,13,11,26.90
2010,07,07,13,12,26.90
2010,07,07,13,13,26.80
2010,07,07,13,14,26.80
2010,07,07,13,15,26.70
2010,07,07,13,16,26.70
2010,07,07,13,17,26.60
2010,07,07,13,18,26.60
2010,07,07,13,19,26.60
2010,07,07,13,20,26.60
2010,07,07,13,21,26.60
2010,07,07,13,22,26.60
2010,07,07,13,23,26.60
2010,07,07,13,24,26.60
2010,07,07,13,25,26.70
2010,07,07,13,26,26.80
2010,07,07,13,27,26.80
2010,07,07,13,28,26.90
2010,07,07,13,29,27.00
2010,07,07,13,30,27.00
2010,07,07,13,31,27.10
2010,07,07,13,32,27.20
2010,07,07,13,33,27.30
2010,07,07,13,34,27.30
2010,07,07,13,35,27.40
2010,07,07,13,36,27.50
2010,07,07,13,37,27.60
2010,07,07,13,38,27.60
2010,07,07,13,39,27.60
2010,07,07,13,40,27.60
2010,07,07,13,41,27.60
2010,07,07,13,42,27.50
2010,07,07,13,43,27.60
2010,07,07,13,44,27.60
2010,07,07,13,45,27.70
2010,07,07,13,46,27.70
2010,07,07,13,47,27.80
2010,07,07,13,48,27.90
2010,07,07,13,49,27.90
2010,07,07,13,50,28.00
2010,07,07,13,51,27.90
2010,07,07,13,52,27.90
2010,07,07,13,53,27.90
2010,07,07,13,54,27.90
2010,07,07,13,55,27.90
2010,07,07,13,56,28.00
2010,07,07,13,57,28.00
2010,07,07,13,58,28.00
2010,07,07,13,59,28.00
2010,07,07,14,00,28.10
2010,07,07,14,01,28.10
2010,07,07,14,02,28.10
2010,07,07,14,03,28.10
2010,07,07,14,04,28.10
2010,07,07,14,05,28.20
2010,07,07,14,06,28.20
2010,07,07,14,07,28.20
2010,07,07,14,08,28.20
2010,07,07,14,09,28.30
2010,07,07,14,10,28.30
2010,07,07,14,11,28.30
2010,07,07,14,12,28.30
2010,07,07,14,13,28.20
2010,07,07,14,14,28.20
2010,07,07,14,15,28.20
2010,07,07,14,16,28.40
2010,07,07,14,17,28.40
2010,07,07,14,18,28.40
2010,07,07,14,19,28.40
2010,07,07,14,20,28.40
2010,07,07,14,21,28.50
2010,07,07,14,22,28.50
2010,07,07,14,23,28.60
2010,07,07,14,24,28.60
2010,07,07,14,25,28.60
2010,07,07,14,26,28.60
2010,07,07,14,27,28.50
2010,07,07,14,28,28.40
2010,07,07,14,29,28.40
2010,07,07,14,30,28.40
2010,07,07,14,31,28.30
2010,07,07,14,32,28.30
2010,07,07,14,33,28.30
2010,07,07,14,34,28.40
2010,07,07,14,35,28.40
2010,07,07,14,36,28.40
2010,07,07,14,37,28.50
2010,07,07,14,38,28.60
2010,07,07,14,39,28.70
2010,07,07,14,40,28.70
2010,07,07,14,41,28.70
2010,07,07,14,42,28.70
2010,07,07,14,43,28.70
2010,07,07,14,44,28.70
2010,07,07,14,45,28.70
2010,07,07,14,46,28.60
2010,07,07,14,47,28.60
2010,07,07,14,48,28.60
2010,07,07,14,49,28.60
2010,07,07,14,50,28.60
2010,07,07,14,51,28.60
2010,07,07,14,52,28.60
2010,07,07,14,53,28.70
2010,07,07,14,54,28.80
2010,07,07,14,55,28.90
2010,07,07,14,56,28.90
2010,07,07,14,57,29.00
2010,07,07,14,58,29.10
2010,07,07,14,59,29.10
2010,07,07,15,00,29.20
2010,07,07,15,01,29.30
2010,07,07,15,02,29.30
2010,07,07,15,03,29.30
2010,07,07,15,04,29.20
2010,07,07,15,05,29.20
2010,07,07,15,06,29.10
2010,07,07,15,07,29.10
2010,07,07,15,08,29.10
2010,07,07,15,09,29.00
2010,07,07,15,10,28.90
2010,07,07,15,11,29.00
2010,07,07,15,12,29.00
2010,07,07,15,13,29.00
2010,07,07,15,14,29.10
2010,07,07,15,15,29.20
2010,07,07,15,16,29.30
2010,07,07,15,17,29.40
2010,07,07,15,18,29.50
2010,07,07,15,19,29.50
2010,07,07,15,20,29.60
2010,07,07,15,21,29.60
2010,07,07,15,22,29.70
2010,07,07,15,23,29.80
2010,07,07,15,24,29.80
2010,07,07,15,25,29.70
2010,07,07,15,26,29.70
2010,07,07,15,27,29.60
2010,07,07,15,28,29.50
2010,07,07,15,29,29.50
2010,07,07,15,30,29.50
2010,07,07,15,31,29.50
2010,07,07,15,32,29.50
2010,07,07,15,33,29.50
2010,07,07,15,34,29.50
2010,07,07,15,35,29.50
2010,07,07,15,36,29.50
2010,07,07,15,37,29.50
2010,07,07,15,38,29.50
2010,07,07,15,39,29.50
2010,07,07,15,40,29.50
2010,07,07,15,41,29.50
2010,07,07,15,42,29.50
2010,07,07,15,43,29.50
2010,07,07,15,44,29.50
2010,07,07,15,45,29.60
2010,07,07,15,46,29.60
2010,07,07,15,47,29.50
2010,07,07,15,48,29.50
2010,07,07,15,49,29.50
2010,07,07,15,50,29.40
2010,07,07,15,51,29.40
2010,07,07,15,52,29.40
2010,07,07,15,53,29.30
2010,07,07,15,54,29.30
2010,07,07,15,55,29.30
2010,07,07,15,56,29.40
2010,07,07,15,57,29.40
2010,07,07,15,58,29.40
2010,07,07,15,59,29.30
2010,07,07,16,00,29.30
2010,07,07,16,01,29.30
2010,07,07,16,02,29.30
2010,07,07,16,03,29.30
2010,07,07,16,04,29.30
2010,07,07,16,05,29.40
2010,07,07,16,06,29.40
2010,07,07,16,07,29.50
2010,07,07,16,08,29.50
2010,07,07,16,09,29.50
2010,07,07,16,10,29.40
2010,07,07,16,11,29.40
2010,07,07,16,12,29.30
2010,07,07,16,13,29.20
2010,07,07,16,14,29.20
2010,07,07,16,15,29.20
2010,07,07,16,16,29.20
2010,07,07,16,17,29.30
2010,07,07,16,18,29.40
2010,07,07,16,19,29.40
2010,07,07,16,20,29.50
2010,07,07,16,21,29.60
2010,07,07,16,22,29.60
2010,07,07,16,23,29.70
2010,07,07,16,24,29.70
2010,07,07,16,25,29.60
2010,07,07,16,26,29.60
2010,07,07,16,27,29.60
2010,07,07,16,28,29.60
2010,07,07,16,29,29.60
2010,07,07,16,30,29.60
2010,07,07,16,31,29.70
2010,07,07,16,32,29.80
2010,07,07,16,33,29.90
2010,07,07,16,34,29.90
2010,07,07,16,35,30.00
2010,07,07,16,36,30.10
2010,07,07,16,37,30.20
2010,07,07,16,38,30.20
2010,07,07,16,39,30.20
2010,07,07,16,40,30.10
2010,07,07,16,41,30.10
2010,07,07,16,42,30.10
2010,07,07,16,43,30.10
2010,07,07,16,44,30.20
2010,07,07,16,45,30.30
2010,07,07,16,46,30.30
2010,07,07,16,47,30.40
2010,07,07,16,48,30.40
2010,07,07,16,49,30.40
2010,07,07,16,50,30.50
2010,07,07,16,51,30.60
2010,07,07,16,52,30.60
2010,07,07,16,53,30.60
2010,07,07,16,54,30.70
2010,07,07,16,55,30.60
2010,07,07,16,56,30.60
2010,07,07,16,57,30.60
2010,07,07,16,58,30.60
2010,07,07,16,59,30.60
2010,07,07,17,00,30.50
2010,07,07,17,01,30.50
2010,07,07,17,02,30.50
2010,07,07,17,03,30.50
2010,07,07,17,04,30.50
2010,07,07,17,05,30.50
2010,07,07,17,06,30.50
2010,07,07,17,07,30.50
2010,07,07,17,08,30.40
2010,07,07,17,09,30.40
2010,07,07,17,10,30.30
2010,07,07,17,11,30.30
2010,07,07,17,12,30.30
2010,07,07,17,13,30.30
2010,07,07,17,14,30.30
2010,07,07,17,15,30.20
2010,07,07,17,16,30.20
2010,07,07,17,17,30.10
2010,07,07,17,18,30.10
2010,07,07,17,19,30.10